Location: Three Oaks Observatory
(31.1535°N, 83.5955°W)
Time: 03:42:27
(UTC-05:00)

XW-2F - Visible Passes

Search period start: 20 November 2019 00:00
Search period end: 30 November 2019 00:00
Orbit: 503 x 524 km, 97.5° (Epoch: 19 November)

Date Brightness Start Highest point End Pass type
(mag) Time Alt. Az. Time Alt. Az. Time Alt. Az.
20 Nov ? 05:52:55 10° NE 05:55:51 21° E 05:58:46 10° SSE visible
20 Nov ? 18:00:29 10° SSE 18:04:09 88° WSW 18:07:51 10° NNW visible
21 Nov ? 05:38:19 10° ENE 05:40:11 13° E 05:42:04 10° SE visible
22 Nov ? 19:06:05 10° WSW 19:07:09 11° W 19:08:11 10° WNW visible
23 Nov ? 06:39:21 10° N 06:43:08 80° WNW 06:46:55 10° SSW visible
23 Nov ? 18:48:54 10° SW 18:51:28 18° W 18:54:03 10° NW visible
24 Nov ? 06:23:49 10° NNE 06:27:34 59° E 06:31:18 10° S visible
24 Nov ? 18:32:35 10° SSW 18:35:49 29° W 18:39:05 10° NW visible
25 Nov ? 06:08:28 10° NNE 06:11:58 35° E 06:15:27 10° SSE visible
25 Nov ? 18:16:38 10° S 18:20:12 49° W 18:23:48 10° NNW visible
26 Nov ? 05:53:21 10° NE 05:56:20 22° E 05:59:18 10° SSE visible
26 Nov ? 18:00:56 10° S 18:04:36 87° WSW 18:08:20 10° NNW visible
27 Nov ? 05:38:44 10° ENE 05:40:40 14° E 05:42:36 10° SE visible
28 Nov ? 19:06:35 10° WSW 19:07:35 11° W 19:08:35 10° WNW visible
29 Nov ? 06:39:47 10° N 06:43:36 79° WNW 06:47:22 10° SSW visible
29 Nov ? 18:49:20 10° SW 18:51:53 18° W 18:54:28 10° NW visible
